Regional Weather Roundup
Issued by NWS Charleston, SC

Current Version | Previous Version | Graphics & Text | Print | Product List | Glossary On
Versions: 1 2 3 4 5 6 7 8 9 10 11 12 13 14 15 16 17 18 19 20 21 22 23 24 25 26 27 28 29 30 31 32 33 34 35 36 37 38 39 40 41 42 43 44 45 46 47 48 49 50
617 ASUS42 KCHS 280228 RWRCHS REGIONAL WEATHER ROUNDUP NATIONAL WEATHER SERVICE CHARLESTON SC 1000 PM EDT FRI MAY 27 2016 NOTE: "FAIR" INDICATES FEW OR NO CLOUDS BELOW 12,000 FEET WITH NO SIGNIFICANT WEATHER AND/OR OBSTRUCTIONS TO VISIBILITY. NOT ALL STATIONS ARE QUALITY CONTROLLED. USE DATA WITH CAUTION... ESPECIALLY DEWPOINT OBSERVATIONS. SCZ027-030-031-034>040-042>050-280300- ...SOUTHEAST SOUTH CAROLINA... CITY SKY/WX TMP DP RH WIND PRES REMARKS N CHARLESTON PTCLDY 74 63 68 E9 30.09R WATERFRONT PRK N/A 75 68 78 E10 30.06R MOUNT PLEASANT CLOUDY 73 66 78 CALM 30.10R JOHNS ISLAND CLOUDY 75 68 78 NE7 30.10R PINOPOLIS N/A 75 63 64 CALM 30.01R MONCKS CORNER FAIR 66 57 72 CALM 30.11R SUMMERVILLE FAIR 70 64 83 CALM 30.11R BEAUFORT MCAS CLEAR 74 66 76 E5 30.09R BEAUFORT ARPT FAIR 72 64 78 E5 30.09R HILTON HEAD IS CLEAR 73 68 83 VRB6 30.09S WALTERBORO CLEAR 70 63 78 CALM 30.11R ALLENDALE FAIR 72 63 73 CALM 30.09R ...SOUTHERN MIDLANDS AND PEE DEE... CITY SKY/WX TMP DP RH WIND PRES REMARKS GEORGETOWN CLOUDY 72 64 78 E5 30.12R KINGSTREE FAIR 68 59 73 CALM 30.11R ORANGEBURG CLEAR 74 60 61 CALM 30.10R BARNWELL FAIR 75 64 69 CALM 30.10R AIKEN FAIR 72 57 60 SE6 30.13R MANNING FAIR 68 59 73 CALM 30.11R COLUMBIA CLEAR 76 55 48 E3 30.08R SUMTER CLEAR 73 52 48 SE6 30.08R FLORENCE CLEAR 71 58 63 SE6 30.11R MYRTLE BEACH CLEAR 75 61 60 E9 30.12R N MYRTLE BEACH PTCLDY 75 66 73 E7 30.11R $$ GAZ063-065-086>088-099>101-113>116-118-119-134>141-150-280300- ...SOUTHEAST GEORGIA... CITY SKY/WX TMP DP RH WIND PRES REMARKS SAVANNAH ARPT CLEAR 73 64 73 NE6 30.09R HUNTER AAF CLEAR 73 68 84 VRB2 30.06R FORT STEWART CLEAR 71 65 81 CALM 30.06R STATESBORO CLEAR 73 66 79 CALM 30.09R SYLVANIA CLEAR 73 64 73 CALM 30.10R CLAXTON FAIR 69 65 89 CALM 30.08S ...CSRA...CENTRAL AND FAR SOUTHEAST GEORGIA... CITY SKY/WX TMP DP RH WIND PRES REMARKS THOMSON CLEAR 75 64 67 SE3 30.12R AUGUSTA-BUSH CLEAR 72 60 66 SE8 30.07R AUGUSTA-DANIEL CLEAR 78 59 51 SE5 30.09R SWAINSBORO FAIR 72 59 64 SE6 30.08S VIDALIA CLEAR 72 63 73 SE3 30.08R EASTMAN FAIR 75 60 60 SE6 30.08R HAZLEHURST FAIR 76 64 68 CALM 30.06R ALMA CLEAR 72 63 73 E3 30.06R WAYCROSS CLOUDY 74 66 75 E6 30.06R JESUP FAIR 66 63 88 E7 30.07S BAXLEY FAIR 73 64 73 E5 30.07R BRUNSWICK PTCLDY 75 72 88 CALM 30.08R SAINT SIMONS PTCLDY 76 66 71 E6 30.06R $$ SCZ027-028-034-036>038-045-046-048>050-GAZ119-141-280300- ...LAKE AND SUPPLEMENTAL COASTAL OBSERVATIONS... STATION/POSITION TIME TEMP WIND PRES WAVE SWELL AIR SEA DIR/SP/G HT/PER HT/PER/DIR (UTC) (F) (DEG/KT/KT) (MB) (FT/S) (FT/S/D) WINYAH BAY 0100 76 90/ 8 1018.0S LAKE MURRAY 0100 80 110/ 3/ 8 1017.6R ACE BASIN NERRS 0100 74 80/ 2 1018.0S FORT PULASKI 0200 70/ 14/ 16 1018.9R SAPELO ISLAND 0200 75 50/ 6 1018.0S $$ ANZ835-935-AMZ111-154-330-350-352-354-370-450-454-472-280300- ...C-MAN AND BUOY OBSERVATIONS... STATION/POSITION TIME TEMP WIND PRES WAVE SWELL AIR SEA DIR/SP/G HT/PER HT/PER/DIR (UTC) (F) (DEG/KT/KT) (MB) (FT/S) (FT/S/D) BUOY 41004 0150 76 76 70/ 12/ 14 1017.8R 3/ 8 2/ 8 BUOY 41008 0150 76 77 70/ 12/ 16 1017.7R 4/ 6 2/ 70/11 FOLLY BEACH CMAN 0200 76 70/ 14/ 16 1019.0R CAPERS NEARSHORE 0208 76 76 80/ 16/ 19 1018.7R FRIPP NEARSHORE 0108 76 77 90/ 14/ 17 1017.7R STATION/POSITION TIME TEMP WIND PRES WAVE SWELL AIR SEA DIR/SP/G HT/PER HT/PER/DIR (UTC) (F) (DEG/KT/KT) (MB) (FT/S) (FT/S/D) 5E ST. MARYS GA 0201 78 N/A 3/ 5 FRYING PAN BUOY 0200 77 76 70/ 12/ 14 1019.0R BUOY 41025 0150 76 78 140/ 10/ 10 1021.2R 3/ 8 2/150/ 8 CAPE LOOKOUT NC 0200 74 80/ 7/ 8 1020.5R BUOY 41002 0150 77 77 90/ 19/ 23 1017.4R 6/ 9 3/120/ 9 BUOY 41010 0120 77 78 40/ 12/ 16 1014.7F ST AUGUSTINE FL 0200 77 80 80/ 12/ 13 1017.9R $$

USA.gov is the U.S. government's official web portal to all federal, state and local government web resources and services.